Theta_e
348 351 350 348 349 352 352 347 349 347 345 345 349 346 343 343 345 347 349 348 349 351 352 353 352 353 351 350 345 343 344 341 349 352 352 351 349 347 345 348 349 349 348
349 351 350 342 345 346 348 346 347 346 348 348 346 351 351 353 352 353 353 353 353 352 353 353 353 353 347 341 352 352 352 352 351 352 351 351 347 349 346 347 349 349 349
348 348 349 341 345 352 346 348 350 349 348 348 348 351 353 353 353 353 353 352 353 352 352 351 352 352 346 348 352 347 344 344 349 350 348 347 347 351 351 350 349 349 349
348 347 349 345 347 342 346 345 351 353 351 349 349 350 352 353 354 353 349 354 354 353 352 352 349 349 350 343 342 344 344 345 346 345 347 342 349 351 350 350 350 350 349
348 350 345 345 341 342 344 344 348 351 352 348 348 351 350 354 354 354 354 353 353 354 354 353 351 348 340 338 339 342 344 345 346 342 346 341 343 350 348 349 350 350 348
350 349 344 344 342 343 347 350 353 351 352 345 347 352 350 353 353 354 351 354 351 347 349 351 352 352 346 341 338 338 345 346 346 345 344 345 347 351 352 352 349 349 349
350 345 346 348 345 346 347 352 353 353 348 351 346 353 353 354 354 354 354 352 351 350 350 349 350 350 344 341 339 342 346 347 343 344 342 341 348 350 349 350 348 348 344
348 345 350 347 344 344 352 350 351 353 349 351 350 350 352 353 354 354 352 353 352 352 352 348 345 341 338 339 338 341 347 348 346 342 339 343 348 348 348 348 347 346 347
346 345 346 347 349 353 352 349 348 345 348 351 354 348 344 347 348 347 352 351 352 352 351 348 343 339 338 336 338 341 348 347 344 343 339 341 347 349 349 344 342 342 344
349 347 346 347 353 348 345 350 344 347 348 348 346 342 335 339 344 346 345 343 348 350 350 349 346 343 341 342 340 339 345 347 344 342 339 341 343 346 345 345 343 340 341
346 345 348 348 346 344 345 349 343 334 336 336 335 334 335 339 345 342 346 344 346 345 351 351 349 350 347 343 342 344 345 345 343 346 338 337 337 340 346 346 343 340 341
343 344 346 345 349 349 348 338 338 334 334 337 342 347 347 347 350 350 351 351 349 350 354 352 352 349 348 346 343 344 343 348 346 346 339 335 335 336 339 342 343 343 340
343 345 346 348 349 348 350 344 344 344 343 348 349 349 350 352 351 351 351 349 347 346 342 349 346 349 351 342 340 344 345 347 347 346 342 335 340 340 337 339 340 340 343
343 344 345 347 348 350 351 349 348 348 349 349 349 349 350 351 349 350 351 352 350 346 347 346 351 350 345 347 348 350 347 346 345 341 345 340 342 340 341 337 340 341 341
344 344 344 346 348 349 350 350 352 350 351 349 351 348 349 351 351 348 347 352 351 342 344 348 350 350 348 348 347 349 349 347 344 342 343 344 343 341 343 343 339 340 341
345 345 346 351 350 349 349 352 351 350 348 350 349 350 352 352 351 350 351 350 348 343 349 350 349 349 350 346 347 348 348 348 348 346 344 343 343 342 344 344 344 338 338
345 345 348 349 351 351 349 351 347 345 348 349 348 350 353 354 350 354 352 347 350 351 351 350 346 348 348 345 343 347 350 349 348 348 348 347 348 345 347 347 345 343 340
345 348 348 348 349 351 347 349 347 345 350 350 349 351 354 354 354 354 352 353 352 352 351 351 347 346 347 346 344 346 350 351 350 350 348 349 349 347 347 347 345 345 339
347 349 350 351 347 350 348 349 344 349 349 350 350 351 349 349 354 353 353 355 353 352 351 350 350 347 347 350 349 350 349 346 349 346 349 350 350 349 346 346 347 345 340
345 346 345 348 348 349 348 349 349 351 351 349 351 351 351 349 349 356 355 355 354 349 351 350 350 351 350 349 352 351 350 349 350 343 345 350 350 350 350 347 346 344 345
345 346 344 348 347 348 347 350 350 350 351 349 352 352 355 355 355 355 354 356 353 350 355 354 354 352 351 351 350 351 350 351 351 350 342 351 349 350 348 348 348 346 345
345 346 345 347 347 349 349 345 350 352 349 349 352 356 357 357 357 359 355 356 355 351 353 351 351 350 352 350 347 348 343 349 352 350 349 349 349 350 349 347 346 347 347
345 345 346 348 349 351 349 351 352 353 353 352 355 356 355 357 358 357 358 354 352 353 353 355 354 349 352 352 349 348 345 347 349 351 352 350 350 350 348 348 345 345 345
346 345 346 349 348 349 349 354 352 351 352 351 350 350 354 360 358 357 353 353 352 354 353 353 353 355 353 355 354 352 350 348 346 347 351 351 349 349 348 347 346 346 345
347 347 346 350 351 350 351 353 356 352 352 352 350 352 355 359 356 358 354 352 349 355 351 353 355 353 355 355 354 356 355 349 348 347 346 350 350 348 349 349 347 346 344
350 351 349 350 353 353 351 352 356 352 351 353 356 355 357 358 355 358 357 353 351 355 351 352 352 351 350 350 350 346 347 349 348 351 346 347 347 347 347 347 346 345 345
Wind_Speed
8 11 15 16 18 16 18 19 18 19 19 19 19 19 19 18 21 22 22 23 20 20 19 18 18 18 18 17 19 21 22 21 22 20 18 17 18 21 21 20 20 20 21
15 13 17 16 17 17 17 18 17 18 19 19 20 20 19 19 21 20 19 20 19 20 17 17 17 16 16 16 16 17 19 19 20 19 18 18 18 20 21 22 21 20 20
18 17 18 16 15 14 16 16 16 17 17 19 19 17 17 17 19 19 18 18 17 17 16 16 15 15 15 15 14 16 17 18 19 16 14 18 18 18 19 20 20 19 18
22 18 20 17 16 16 15 16 15 15 16 17 18 16 16 15 16 16 17 16 15 14 13 14 14 15 13 14 14 15 15 13 10 10 17 17 15 15 17 19 19 18 17
25 18 20 18 18 16 14 15 15 14 14 15 17 15 15 13 13 13 14 13 13 12 12 13 13 13 12 11 12 12 12 8 5 13 17 17 16 16 18 18 18 17 17
15 21 21 20 17 15 13 14 14 13 13 15 14 14 13 12 10 10 12 11 10 10 9 10 10 11 10 10 10 10 11 12 18 19 16 14 19 17 16 17 16 16 16
21 20 20 18 17 15 13 13 12 13 14 12 13 12 11 10 9 8 9 8 8 9 8 8 8 9 8 10 10 10 14 11 15 18 17 16 16 17 15 16 16 15 14
23 21 20 18 16 14 13 13 13 11 12 11 11 11 11 8 8 7 8 8 7 7 7 6 6 7 5 6 8 9 11 11 15 19 17 17 14 14 14 15 15 14 13
23 22 19 18 16 15 14 13 13 12 10 10 9 9 9 7 8 8 7 6 6 5 5 4 5 5 4 3 5 6 9 14 13 13 14 15 14 13 12 13 13 12 13
23 22 21 20 19 16 14 12 12 12 9 10 8 8 7 7 7 6 6 6 6 6 6 4 2 3 2 1 1 3 2 9 10 13 15 14 12 13 12 11 13 13 12
24 23 24 20 17 15 14 13 11 10 9 8 7 6 6 7 6 7 5 8 7 6 7 6 5 3 2 3 2 1 1 3 17 13 17 14 11 9 12 12 12 15 13
29 26 23 21 19 16 13 12 11 10 10 8 6 2 2 4 7 12 10 7 9 6 7 7 6 5 5 1 6 5 8 10 10 14 17 11 6 6 10 11 12 13 14
31 28 27 23 23 20 15 11 13 12 10 7 5 2 4 8 13 9 8 6 8 7 9 11 9 10 8 3 13 10 13 14 13 13 16 16 5 5 11 12 12 12 13
28 27 28 28 23 21 16 13 12 12 11 11 7 5 5 5 5 8 9 13 10 2 10 14 12 9 10 7 6 10 16 17 15 3 12 15 8 3 7 13 12 12 12
32 27 27 25 27 21 19 13 11 11 14 10 14 8 8 2 4 8 8 6 2 3 13 13 11 13 13 10 9 11 21 15 12 10 12 13 8 6 2 10 14 13 14
34 32 25 25 23 19 17 6 13 14 12 15 14 6 2 6 3 4 6 7 8 11 13 10 14 13 10 10 10 10 10 7 4 4 5 9 8 6 6 5 14 17 16
36 29 35 26 22 18 13 5 7 7 5 15 9 7 5 5 5 2 4 7 4 7 4 9 11 12 11 7 6 7 8 4 6 5 6 7 6 8 7 7 10 16 17
31 33 29 22 19 13 11 8 11 5 2 14 10 11 7 5 4 3 6 6 5 2 2 6 9 9 8 7 7 5 5 5 4 7 7 9 8 9 10 9 9 13 20
33 34 27 25 22 16 13 7 13 5 6 11 6 11 6 6 1 2 2 5 4 7 7 7 9 8 9 7 7 5 5 5 5 7 12 12 10 9 9 10 8 10 18
30 28 23 25 22 20 17 8 8 10 13 7 6 10 2 1 2 1 3 5 4 8 10 9 8 6 7 7 3 5 5 8 10 9 13 10 9 8 6 8 8 8 10
30 25 22 17 27 24 19 14 11 11 10 10 10 10 7 2 5 3 5 3 7 8 8 6 5 6 7 6 9 8 7 8 8 8 12 13 10 12 7 7 6 8 7
33 27 24 20 26 23 15 16 13 8 11 12 12 12 9 3 2 0 5 7 4 7 8 8 7 9 9 8 5 7 2 5 6 8 11 12 13 13 10 11 8 8 6
35 31 26 25 25 20 15 14 12 8 10 13 15 11 6 4 4 1 2 6 4 4 8 6 6 7 6 6 7 4 3 2 4 8 10 11 16 15 11 13 12 12 10
35 34 31 27 25 21 21 16 15 15 10 11 11 10 8 7 6 3 3 4 2 7 5 6 7 4 2 3 4 7 4 10 3 1 7 13 15 18 17 18 17 15 12
38 38 35 31 27 23 26 21 13 13 10 11 13 10 14 11 9 7 6 5 5 4 4 6 3 2 4 2 5 2 11 13 7 4 2 5 18 19 19 21 21 15 11
36 35 38 36 32 26 23 24 15 16 17 8 13 20 16 13 13 12 7 7 5 5 5 8 5 4 1 1 3 7 9 3 4 5 3 8 15 19 18 20 22 18 15
Wind_Direction
115 101 116 118 109 99 100 98 91 89 87 89 89 92 95 99 100 97 93 91 96 91 90 92 92 92 93 95 101 102 102 104 107 106 99 99 108 111 115 112 105 106 108
115 116 121 124 116 106 105 100 95 96 93 93 96 94 98 99 100 100 99 98 97 94 90 92 93 95 96 97 96 98 104 109 112 107 103 99 105 108 112 110 108 108 112
119 127 121 122 121 114 109 103 100 99 98 100 102 102 106 103 104 101 100 101 99 97 91 92 98 97 99 98 96 99 100 106 116 95 95 100 99 102 103 107 109 109 111
127 132 131 128 130 118 112 110 103 98 103 105 110 114 111 109 105 104 105 103 105 103 98 92 101 103 101 100 102 103 100 100 120 106 115 110 109 110 111 106 109 110 111
132 136 139 140 131 121 121 117 110 108 106 107 112 116 119 116 110 105 102 103 103 102 100 96 99 99 98 91 95 103 101 94 98 105 113 112 118 118 110 109 109 111 109
131 148 146 145 138 131 128 120 117 117 111 112 111 118 122 121 118 113 108 105 101 101 99 103 103 98 95 93 100 108 93 106 118 116 119 127 123 117 116 113 113 117 114
143 137 143 147 144 140 135 131 128 127 125 121 119 121 118 124 126 126 121 119 114 111 114 110 111 103 98 99 110 109 91 102 130 134 125 138 126 125 118 119 118 114 114
143 146 142 147 146 142 141 133 133 128 132 129 134 125 123 134 140 145 147 138 137 144 141 134 119 112 105 96 94 112 93 94 126 130 127 127 122 123 124 121 121 121 118
147 149 150 149 149 149 148 147 147 139 145 143 145 141 140 161 174 174 172 158 162 170 171 150 144 133 122 96 96 95 114 116 130 134 122 125 129 126 124 131 126 120 122
149 153 155 158 161 158 149 157 152 148 156 161 160 160 154 177 189 183 190 180 186 197 194 196 191 138 130 108 81 115 133 135 124 138 138 138 140 130 126 127 128 128 128
155 160 167 164 158 154 160 164 167 156 173 168 169 176 185 205 214 227 223 214 215 223 209 206 188 206 161 169 166 161 274 208 164 155 154 148 132 138 133 133 135 133 131
163 174 174 167 163 162 171 176 182 177 179 162 168 194 251 232 240 244 246 249 228 232 241 233 216 200 218 234 156 132 203 239 170 170 174 168 157 153 147 143 138 140 140
172 177 183 177 175 173 180 177 184 183 178 177 193 231 302 308 251 244 239 252 228 218 226 228 229 201 222 186 185 161 208 181 184 187 185 177 174 147 169 159 153 150 146
172 179 184 184 180 179 187 190 190 191 197 210 220 203 240 225 217 214 254 240 229 327 257 255 215 198 200 229 190 188 196 188 173 191 190 197 205 165 176 180 165 163 156
172 177 176 185 183 186 191 190 214 218 215 216 230 216 210 224 317 316 343 332 221 229 260 197 191 189 185 188 185 193 201 199 226 261 203 203 218 217 173 188 183 176 166
174 182 175 156 175 182 190 192 222 233 240 200 199 189 200 235 306 324 14 356 321 250 239 212 186 193 175 176 168 178 190 215 257 206 200 221 231 210 199 166 190 190 183
172 168 168 165 154 169 180 200 164 186 189 168 191 181 201 210 326 310 282 358 281 260 266 196 197 189 191 203 186 176 203 212 230 227 196 216 242 225 201 203 174 191 190
159 157 161 173 179 162 183 220 202 199 253 194 182 185 193 220 261 307 305 320 356 18 31 141 166 179 190 193 195 205 180 192 268 267 261 230 241 229 204 201 176 184 190
154 156 161 168 165 170 183 218 197 222 218 174 194 213 301 208 231 331 309 359 5 70 69 102 118 136 154 160 180 167 167 150 171 232 231 221 233 213 196 196 179 177 195
151 156 160 168 169 169 176 187 208 236 213 196 249 202 147 53 199 257 19 63 95 74 91 96 116 155 156 157 148 150 148 160 169 203 184 187 219 222 202 198 202 189 187
154 152 161 157 168 170 174 189 222 238 203 226 205 199 186 122 71 56 83 90 129 97 110 119 113 107 143 145 131 115 122 139 183 181 177 184 198 200 197 200 208 206 204
158 161 162 163 164 169 175 196 213 253 225 239 215 172 175 163 141 120 134 108 117 100 123 107 100 105 109 169 146 123 84 74 109 140 167 188 191 182 175 166 162 166 187
159 165 166 170 167 170 186 211 220 215 190 177 161 183 208 189 165 184 112 119 128 141 121 117 110 122 140 183 181 128 92 163 134 156 183 181 177 180 190 176 163 158 164
166 171 174 178 186 195 192 210 214 204 193 197 205 206 210 191 181 198 142 150 160 141 134 129 113 99 109 68 225 235 190 153 150 118 159 169 174 171 166 171 168 164 163
168 174 178 181 187 193 199 213 226 203 214 231 228 215 190 199 189 189 174 161 151 158 141 133 128 88 44 88 46 325 234 193 172 139 179 151 176 176 171 171 170 166 185
171 172 178 183 188 192 198 206 210 213 222 239 200 178 196 205 188 185 181 171 180 168 164 166 173 174 252 22 51 60 54 152 163 176 135 162 155 176 185 173 173 175 180